Grand Marais, MN

7:38 AM CST on November 23, 2017 (GMT -0600)
Grand Marais

Weather History for KGNA - March, 2013

Change the Weather History Date:

Monday, March 18, 2013

  Actual Average (KCKC) Record (KCKC)
Temperature  
Mean Temperature 29 °F -  
Max Temperature 30 °F 30 °F 69 °F (2012)
Min Temperature 28 °F 13 °F 0 °F (2005)
Degree Days  
Heating Degree Days 36    
Moisture  
Dew Point 22 °F    
Average Humidity 76    
Maximum Humidity 92    
Minimum Humidity 47    
Precipitation  
Precipitation 0.41 in - - ()
Sea Level Pressure  
Sea Level Pressure 29.72 in    
Wind  
Wind Speed 11 mph (SE)    
Max Wind Speed 15 mph    
Max Gust Speed 22 mph    
Averages and records for this station are not official NWS values.
T = Trace of Precipitation, MM = Missing Value Source: NWS Daily Summary

Daily Weather History Graph

Daily Weather History Graph

Search for Another Location

Airport or City:

Trip Planner

Search our weather history database for the weather conditions in past years. The results will help you decide how hot, cold, wet, or windy it might be!

Date:

Astronomy

Mar. 18, 2013 Rise Set
Actual Time 7:07 AM CDT 7:11 PM CDT
Civil Twilight 6:37 AM CDT 7:42 PM CDT
Nautical Twilight 6:00 AM CDT 8:18 PM CDT
Astronomical Twilight 5:23 AM CDT 8:55 PM CDT
Moon 10:42 AM CDT (3/18) 1:35 AM CDT (3/18)
Length of Visible Light 13h 05m
Length of Day
12h 03m
Waxing Crescent, 41% of the Moon is Illuminated
Mar 18
Waxing Crescent
Mar 19
First Quarter
Mar 27
Full
Apr 2
Last Quarter
Apr 10
New

Hourly Weather History & Observations

Time (CDT) Temp. Windchill Dew Point Humidity Pressure Visibility Wind Dir Wind Speed Gust Speed Precip Events Conditions
12:29 AM 30.2 °F 19.8 °F 12.2 °F 47% 29.96 in - SSE 13.8 mph - N/A   Unknown
12:56 AM 30.0 °F 19.1 °F 12.9 °F 49% 30.01 in - South 15.0 mph - N/A   Unknown
1:56 AM 28.9 °F 17.7 °F 15.1 °F 56% 29.99 in - South 15.0 mph 21.9 mph N/A   Unknown
2:56 AM 28.9 °F 18.6 °F 14.0 °F 54% 29.97 in - South 12.7 mph - N/A   Unknown
3:56 AM 28.0 °F 16.5 °F 15.1 °F 58% 29.94 in - SSE 15.0 mph - N/A   Unknown
4:56 AM 28.0 °F 18.6 °F 18.0 °F 66% 29.91 in - SSE 10.4 mph - N/A   Unknown
5:56 AM 28.0 °F 20.0 °F 19.0 °F 69% 29.87 in - SE 8.1 mph - N/A   Unknown
6:56 AM 28.0 °F 17.5 °F 19.0 °F 69% 29.86 in - ESE 12.7 mph 17.3 mph N/A   Unknown
7:56 AM 28.0 °F 17.5 °F 19.9 °F 72% 29.83 in - ESE 12.7 mph 19.6 mph N/A   Unknown
8:56 AM 28.9 °F 18.2 °F 21.9 °F 75% 29.79 in - ESE 13.8 mph 20.7 mph N/A   Unknown
9:56 AM 28.9 °F 18.2 °F 21.0 °F 72% 29.76 in - East 13.8 mph - N/A   Unknown
10:56 AM 28.9 °F 18.6 °F 23.0 °F 78% 29.73 in - ESE 12.7 mph 20.7 mph 0.01 in   Unknown
11:56 AM 28.9 °F 18.6 °F 23.0 °F 78% 29.70 in - ESE 12.7 mph 19.6 mph 0.01 in   Unknown
12:56 PM 28.9 °F 19.2 °F 24.1 °F 82% 29.67 in - ESE 11.5 mph 20.7 mph 0.02 in   Unknown
1:56 PM 28.0 °F 18.6 °F 24.1 °F 85% 29.63 in - East 10.4 mph - 0.02 in   Unknown
2:56 PM 28.9 °F 20.4 °F 25.0 °F 85% 29.60 in - East 9.2 mph - 0.04 in   Unknown
3:56 PM 28.9 °F 20.4 °F 25.0 °F 85% 29.58 in - East 9.2 mph 17.3 mph 0.06 in   Unknown
4:56 PM 28.9 °F 21.1 °F 26.1 °F 89% 29.57 in - East 8.1 mph - 0.04 in   Unknown
5:56 PM 30.0 °F 22.4 °F 27.0 °F 88% 29.55 in - East 8.1 mph - 0.06 in   Unknown
6:56 PM 30.0 °F 25.2 °F 28.0 °F 92% 29.55 in - ESE 4.6 mph - 0.05 in   Unknown
7:56 PM 30.9 °F 27.5 °F 28.0 °F 89% 29.53 in - SE 3.5 mph - 0.03 in   Unknown
8:56 PM 30.9 °F - 28.0 °F 89% 29.51 in - Calm Calm - 0.01 in   Unknown
9:56 PM 30.0 °F - 28.0 °F 92% 29.50 in - Calm Calm - 0.04 in   Unknown
10:56 PM 30.0 °F - 27.0 °F 88% 29.49 in - Calm Calm - 0.02 in   Unknown
11:56 PM 28.9 °F 23.9 °F 25.0 °F 85% 29.48 in - North 4.6 mph - N/A   Unknown